GW3634 Weather Reports


time (UTC)temp
C
wind
direction
speed
KPH
gust
KPH
rain 1hr
cm
rain 24hr
cm
rain mn
cm
humidity
%
barometer
mb
20260906221232 37 106 9.7 17.7 0.00 0.00 0.00 36 1042.5
20260906220727 38 107 8.0 14.5 0.00 0.00 0.00 35 1042.5
20260906220222 38 102 9.7 16.1 0.00 0.00 0.00 35 1042.5
20260906215721 38 100 11.3 19.3 0.00 0.00 0.00 35 1042.6
20260906215221 38 124 6.4 19.3 0.00 0.00 0.00 35 1042.5
20260906214719 38 109 4.8 6.4 0.00 0.00 0.00 34 1042.7
20260906214215 38 179 4.8 8.0 0.00 0.00 0.00 35 1042.6
20260906213713 37 93 4.8 11.3 0.00 0.00 0.00 36 1042.6
20260906213208 37 91 9.7 11.3 0.00 0.00 0.00 37 1042.6
20260906212705 37 96 11.3 14.5 0.00 0.00 0.00 36 1042.9
20260906212201 37 79 14.5 17.7 0.00 0.00 0.00 35 1043.0
20260906211701 38 108 11.3 19.3 0.00 0.00 0.00 34 1043.0
20260906211156 38 107 11.3 19.3 0.00 0.00 0.00 35 1043.1
20260906210651 39 136 8.0 12.9 0.00 0.00 0.00 34 1043.2
20260906210146 38 250 0.0 11.3 0.00 0.00 0.00 35 1043.3
20260906205641 38 129 8.0 8.0 0.00 0.00 0.00 36 1043.3
20260906205137 37 118 1.6 12.9 0.00 0.00 0.00 38 1043.7
20260906204637 37 151 4.8 14.5 0.00 0.00 0.00 36 1043.8
20260906204132 37 108 8.0 17.7 0.00 0.00 0.00 38 1043.6
20260906203631 37 96 8.0 12.9 0.00 0.00 0.00 38 1043.7
20260906203126 38 116 8.0 16.1 0.00 0.00 0.00 35 1043.6
20260906202623 38 107 8.0 11.3 0.00 0.00 0.00 36 1043.5
20260906202122 38 95 6.4 9.7 0.00 0.00 0.00 36 1043.8
20260906201618 38 107 11.3 16.1 0.00 0.00 0.00 37 1043.8
20260906201117 37 122 9.7 19.3 0.00 0.00 0.00 39 1043.9
20260906200613 36 124 8.0 12.9 0.00 0.00 0.00 39 1044.1
20260906200109 37 135 6.4 16.1 0.00 0.00 0.00 38 1044.1
20260906195604 37 106 11.3 20.9 0.00 0.00 0.00 39 1044.0
20260906195100 37 101 16.1 19.3 0.00 0.00 0.00 38 1044.2
20260906194556 35 126 8.0 12.9 0.00 0.00 0.00 40 1044.3
20260906194051 35 90 12.9 19.3 0.00 0.00 0.00 41 1044.2
20260906193551 36 91 12.9 14.5 0.00 0.00 0.00 41 1044.4
20260906193046 36 101 3.2 11.3 0.00 0.00 0.00 40 1044.5
20260906192542 36 93 11.3 19.3 0.00 0.00 0.00 40 1044.4
20260906192041 36 86 19.3 25.7 0.00 0.00 0.00 40 1044.5
20260906191536 36 81 8.0 16.1 0.00 0.00 0.00 40 1044.7
20260906191035 36 115 14.5 22.5 0.00 0.00 0.00 41 1044.5
20260906190534 36 102 14.5 17.7 0.00 0.00 0.00 41 1044.7
20260906190030 36 90 4.8 6.4 0.00 0.00 0.00 42 1044.6
20260906185528 35 95 14.5 17.7 0.00 0.00 0.00 42 1044.9
20260906185027 35 73 12.9 16.1 0.00 0.00 0.00 42 1044.8
20260906184523 36 101 17.7 19.3 0.00 0.00 0.00 41 1045.1
20260906184018 36 101 22.5 24.1 0.00 0.00 0.00 41 1044.8
20260906183514 37 66 9.7 14.5 0.00 0.00 0.00 40 1045.0
20260906183010 37 117 12.9 14.5 0.00 0.00 0.00 38 1045.0
20260906182505 37 131 8.0 17.7 0.00 0.00 0.00 38 1045.3
20260906182001 37 131 9.7 14.5 0.00 0.00 0.00 38 1045.1
20260906181456 37 101 12.9 14.5 0.00 0.00 0.00 38 1045.5
20260906180952 36 57 8.0 14.5 0.00 0.00 0.00 41 1045.4
20260906180446 35 196 3.2 9.7 0.00 0.00 0.00 42 1045.4
20260906175944 36 124 4.8 6.4 0.00 0.00 0.00 40 1045.7
20260906175439 37 125 8.0 9.7 0.00 0.00 0.00 39 1045.7
20260906174938 37 99 14.5 17.7 0.00 0.00 0.00 39 1045.7
20260906174437 37 108 9.7 11.3 0.00 0.00 0.00 40 1045.7
20260906173933 36 164 4.8 14.5 0.00 0.00 0.00 41 1045.7
20260906173428 36 95 9.7 16.1 0.00 0.00 0.00 42 1046.1
20260906172927 36 89 14.5 27.4 0.00 0.00 0.00 41 1046.0
20260906172424 36 87 9.7 22.5 0.00 0.00 0.00 40 1046.1
20260906171919 36 105 8.0 9.7 0.00 0.00 0.00 41 1046.4
20260906171413 36 106 8.0 17.7 0.00 0.00 0.00 42 1046.1
20260906170909 36 142 4.8 14.5 0.00 0.00 0.00 42 1046.1
20260906170405 36 94 17.7 22.5 0.00 0.00 0.00 43 1046.2
20260906165902 36 113 11.3 14.5 0.00 0.00 0.00 42 1046.2
20260906165401 36 89 6.4 20.9 0.00 0.00 0.00 42 1046.3
20260906164856 36 205 3.2 12.9 0.00 0.00 0.00 42 1046.2
20260906164355 36 281 1.6 11.3 0.00 0.00 0.00 43 1046.1
20260906163851 36 140 9.7 12.9 0.00 0.00 0.00 42 1046.4
20260906163347 35 172 4.8 11.3 0.00 0.00 0.00 42 1046.2
20260906162845 35 134 3.2 9.7 0.00 0.00 0.00 41 1046.3
20260906162343 35 90 9.7 12.9 0.00 0.00 0.00 42 1046.3
20260906161839 35 104 9.7 14.5 0.00 0.00 0.00 44 1046.4
20260906161338 35 116 11.3 14.5 0.00 0.00 0.00 44 1046.3
20260906160837 35 83 9.7 12.9 0.00 0.00 0.00 45 1046.3
20260906160331 35 87 3.2 9.7 0.00 0.00 0.00 47 1046.1
20260906155829 35 100 4.8 11.3 0.00 0.00 0.00 46 1046.3
20260906155323 34 88 6.4 9.7 0.00 0.00 0.00 48 1046.4
20260906154820 34 109 4.8 8.0 0.00 0.00 0.00 48 1046.3
20260906154314 34 97 11.3 14.5 0.00 0.00 0.00 49 1046.4
20260906153812 33 93 9.7 14.5 0.00 0.00 0.00 48 1046.3
20260906153307 34 57 6.4 11.3 0.00 0.00 0.00 50 1046.4
20260906152802 34 138 6.4 9.7 0.00 0.00 0.00 50 1046.4
20260906152257 33 96 4.8 8.0 0.00 0.00 0.00 51 1046.3
20260906151756 33 100 1.6 6.4 0.00 0.00 0.00 51 1046.1
20260906151252 33 104 6.4 8.0 0.00 0.00 0.00 52 1046.0
20260906150747 33 82 6.4 6.4 0.00 0.00 0.00 54 1046.1
20260906150243 33 130 4.8 6.4 0.00 0.00 0.00 54 1046.3
20260906145741 33 36 3.2 4.8 0.00 0.00 0.00 56 1046.3
20260906145240 33 97 3.2 4.8 0.00 0.00 0.00 56 1046.2
20260906144736 32 163 0.0 4.8 0.00 0.00 0.00 58 1046.6
20260906144230 32 155 4.8 6.4 0.00 0.00 0.00 61 1046.3
20260906143730 31 166 1.6 4.8 0.00 0.00 0.00 61 1046.3
20260906143227 31 92 3.2 4.8 0.00 0.00 0.00 63 1046.4
20260906142726 30 95 1.6 4.8 0.00 0.00 0.00 65 1046.3
20260906142222 30 78 4.8 8.0 0.00 0.00 0.00 65 1046.2
20260906141721 30 56 3.2 4.8 0.00 0.00 0.00 66 1046.3
20260906141216 30 89 8.0 8.0 0.00 0.00 0.00 68 1046.4
20260906140715 30 108 8.0 8.0 0.00 0.00 0.00 69 1046.3
20260906140210 29 119 3.2 6.4 0.00 0.00 0.00 69 1046.3
20260906135707 29 158 1.6 4.8 0.00 0.00 0.00 70 1046.1
20260906135203 28 192 3.2 4.8 0.00 0.00 0.00 71 1046.2
20260906134658 28 165 1.6 4.8 0.00 0.00 0.00 73 1046.0
20260906134153 28 187 3.2 6.4 0.00 0.00 0.00 73 1046.1
20260906133649 28 93 3.2 4.8 0.00 0.00 0.00 74 1046.0
20260906133144 28 208 3.2 4.8 0.00 0.00 0.00 74 1046.2
20260906132639 27 180 3.2 3.2 0.00 0.00 0.00 75 1046.1
20260906132135 27 111 4.8 4.8 0.00 0.00 0.00 77 1046.4
20260906131630 26 109 3.2 4.8 0.00 0.00 0.00 78 1046.3
20260906131125 26 111 3.2 6.4 0.00 0.00 0.00 79 1046.1
20260906130620 26 91 4.8 4.8 0.00 0.00 0.00 80 1046.1
20260906130115 26 117 3.2 4.8 0.00 0.00 0.00 81 1046.0
20260906125613 25 92 3.2 3.2 0.00 0.00 0.00 82 1046.1
20260906125106 25 64 1.6 4.8 0.00 0.00 0.00 82 1046.1
20260906124602 25 95 3.2 4.8 0.00 0.00 0.00 83 1046.0
20260906124057 24 79 0.0 3.2 0.00 0.00 0.00 84 1045.9
20260906123556 24 87 1.6 4.8 0.00 0.00 0.00 85 1045.8
20260906123051 23 63 3.2 3.2 0.00 0.00 0.00 85 1045.7
20260906122550 23 51 1.6 3.2 0.00 0.00 0.00 87 1045.6
20260906122047 23 31 0.0 3.2 0.00 0.00 0.00 87 1045.8
20260906121542 23 35 1.6 3.2 0.00 0.00 0.00 88 1045.9
20260906121039 23 350 0.0 3.2 0.00 0.00 0.00 87 1045.7
20260906120533 23 330 3.2 4.8 0.00 0.00 0.00 87 1045.6
20260906120031 23 310 0.0 1.6 0.00 0.00 0.00 87 1045.5
20260906115525 23 345 0.0 3.2 0.00 0.00 0.00 87 1045.5
20260906115020 23 57 3.2 3.2 0.00 0.00 0.00 87 1045.5
20260906114514 23 72 3.2 4.8 0.00 0.00 0.00 86 1045.4
20260906114010 23 56 1.6 3.2 0.00 0.00 0.00 86 1045.4
20260906113509 23 27 3.2 3.2 0.00 0.00 0.00 86 1045.5
20260906113004 23 58 3.2 3.2 0.00 0.00 0.00 87 1045.8
20260906112459 23 333 0.0 3.2 0.00 0.00 0.00 87 1045.5
20260906111955 23 283 0.0 1.6 0.00 0.00 0.00 87 1045.5
20260906111454 23 292 0.0 3.2 0.00 0.00 0.00 86 1045.3
20260906110949 23 346 0.0 1.6 0.00 0.00 0.00 86 1045.3
20260906110445 23 347 0.0 1.6 0.00 0.00 0.00 86 1045.3
20260906105944 23 62 0.0 3.2 0.00 0.00 0.00 86 1045.1
20260906105439 23 109 0.0 3.2 0.00 0.00 0.00 86 1045.0
20260906104935 23 292 0.0 3.2 0.00 0.00 0.00 86 1045.0
20260906104434 23 287 0.0 3.2 0.00 0.00 0.00 85 1044.6
20260906103927 23 331 0.0 3.2 0.00 0.00 0.00 84 1044.8
20260906103426 23 329 1.6 3.2 0.00 0.00 0.00 84 1045.0
20260906102921 23 288 1.6 1.6 0.00 0.00 0.00 84 1044.7
20260906102421 23 324 0.0 3.2 0.00 0.00 0.00 84 1044.9
20260906101915 23 19 0.0 3.2 0.00 0.00 0.00 84 1044.8
20260906101411 23 20 0.0 4.8 0.00 0.00 0.00 84 1044.8
20260906100906 24 49 3.2 4.8 0.00 0.00 0.00 83 1044.8
20260906100406 24 64 1.6 4.8 0.00 0.00 0.00 83 1044.5
20260906095900 24 9 3.2 4.8 0.00 0.00 0.00 83 1044.6
20260906095355 24 6 3.2 3.2 0.00 0.00 0.00 83 1044.7
20260906094850 24 350 1.6 3.2 0.00 0.00 0.00 82 1044.7
20260906094345 24 47 0.0 3.2 0.00 0.00 0.00 82 1044.6
20260906093841 24 194 0.0 1.6 0.00 0.00 0.00 82 1044.5
20260906093337 24 275 0.0 1.6 0.00 0.00 0.00 82 1044.3
20260906092831 24 306 0.0 3.2 0.00 0.00 0.00 82 1044.3
20260906092326 24 284 0.0 3.2 0.00 0.00 0.00 81 1044.3
20260906091821 24 298 1.6 1.6 0.00 0.00 0.00 81 1044.4
20260906091317 24 244 0.0 1.6 0.00 0.00 0.00 81 1044.6
20260906090814 25 319 0.0 1.6 0.00 0.00 0.00 80 1044.4
20260906090313 25 335 0.0 3.2 0.00 0.00 0.00 80 1044.4
20260906085813 25 24 1.6 3.2 0.00 0.00 0.00 79 1044.5
20260906085311 25 347 0.0 3.2 0.00 0.00 0.00 79 1044.5
20260906084806 25 338 3.2 3.2 0.00 0.00 0.00 79 1044.2
20260906084300 25 13 3.2 3.2 0.00 0.00 0.00 79 1044.3
20260906083755 25 248 0.0 3.2 0.00 0.00 0.00 78 1044.2
20260906083251 25 119 0.0 3.2 0.00 0.00 0.00 78 1044.2
20260906082745 25 73 0.0 1.6 0.00 0.00 0.00 78 1044.3
20260906082240 25 319 0.0 1.6 0.00 0.00 0.00 77 1044.2
20260906081736 25 266 0.0 1.6 0.00 0.00 0.00 77 1044.1
20260906081231 25 348 0.0 1.6 0.00 0.00 0.00 77 1043.9
20260906080728 25 224 0.0 3.2 0.00 0.00 0.00 77 1044.2
20260906080224 25 171 0.0 4.8 0.00 0.00 0.00 76 1044.2
20260906075723 25 69 0.0 1.6 0.00 0.00 0.00 76 1044.2
20260906075218 26 286 0.0 3.2 0.00 0.00 0.00 75 1044.0
20260906074713 26 193 0.0 3.2 0.00 0.00 0.00 75 1043.9
20260906074212 26 7 1.6 1.6 0.00 0.00 0.00 75 1043.7
20260906073707 26 114 0.0 4.8 0.00 0.00 0.00 74 1044.0
20260906073203 26 166 1.6 3.2 0.00 0.00 0.00 74 1043.9
20260906072658 26 249 0.0 1.6 0.00 0.00 0.00 74 1043.9
20260906072154 26 149 1.6 3.2 0.00 0.00 0.00 74 1044.1
20260906071650 26 306 0.0 4.8 0.00 0.00 0.00 73 1044.4
20260906071149 26 232 1.6 3.2 0.00 0.00 0.00 73 1044.2
20260906070646 26 192 0.0 6.4 0.00 0.00 0.00 73 1044.3
20260906070141 26 249 1.6 3.2 0.00 0.00 0.00 73 1044.2
20260906065641 26 293 1.6 3.2 0.00 0.00 0.00 73 1044.2
20260906065136 26 125 0.0 3.2 0.00 0.00 0.00 73 1044.4
20260906064632 26 192 0.0 3.2 0.00 0.00 0.00 73 1044.1
20260906064127 26 243 3.2 3.2 0.00 0.00 0.00 73 1044.0
20260906063622 26 285 1.6 1.6 0.00 0.00 0.00 73 1044.4
20260906063118 26 288 0.0 3.2 0.00 0.00 0.00 72 1044.1
20260906062613 26 322 1.6 3.2 0.00 0.00 0.00 72 1044.4
20260906062112 26 286 1.6 4.8 0.00 0.00 0.00 72 1044.2
20260906061609 26 278 3.2 4.8 0.00 0.00 0.00 72 1044.4
20260906061108 26 295 1.6 3.2 0.00 0.00 0.00 73 1044.5
20260906060605 26 289 0.0 1.6 0.00 0.00 0.00 72 1044.5
20260906055557 26 345 0.0 1.6 0.00 0.00 0.00 71 1044.5
20260906055052 27 236 0.0 3.2 0.00 0.00 0.00 70 1044.3
20260906054552 27 170 0.0 1.6 0.00 0.00 0.00 70 1044.4
20260906054048 27 251 0.0 3.2 0.00 0.00 0.00 70 1044.5
20260906053544 27 136 0.0 1.6 0.00 0.00 0.00 70 1044.3
20260906053039 27 183 0.0 1.6 0.00 0.00 0.00 69 1044.2
20260906052535 27 197 3.2 3.2 0.00 0.00 0.00 69 1044.5
20260906052032 27 259 0.0 3.2 0.00 0.00 0.00 68 1044.5
20260906051527 27 171 3.2 3.2 0.00 0.00 0.00 68 1044.4
20260906051022 27 229 1.6 4.8 0.00 0.00 0.00 68 1044.4
20260906050517 27 256 1.6 3.2 0.00 0.00 0.00 68 1044.6
20260906050012 27 284 0.0 3.2 0.00 0.00 0.00 67 1044.2
20260906045510 27 335 1.6 3.2 0.00 0.00 0.00 67 1044.3
20260906045006 27 253 0.0 3.2 0.00 0.00 0.00 67 1044.3
20260906044501 27 257 1.6 3.2 0.00 0.00 0.00 66 1044.3
20260906043957 28 255 0.0 1.6 0.00 0.00 0.00 65 1044.4
20260906043452 28 175 0.0 3.2 0.00 0.00 0.00 65 1044.7
20260906042949 27 190 1.6 4.8 0.00 0.00 0.00 66 1044.2
20260906042448 27 255 0.0 1.6 0.00 0.00 0.00 65 1044.4
20260906041947 28 243 0.0 1.6 0.00 0.00 0.00 65 1044.5
20260906041444 28 148 0.0 1.6 0.00 0.00 0.00 64 1044.3
20260906040943 28 239 0.0 3.2 0.00 0.00 0.00 64 1044.6
20260906040438 28 289 0.0 3.2 0.00 0.00 0.00 63 1044.4
20260906035934 28 144 0.0 1.6 0.00 0.00 0.00 63 1044.6
20260906035429 28 96 0.0 1.6 0.00 0.00 0.00 62 1044.5
20260906034924 28 203 0.0 3.2 0.00 0.00 0.00 61 1044.5
20260906034419 28 205 0.0 1.6 0.00 0.00 0.00 61 1044.6
20260906033914 28 134 0.0 0.0 0.00 0.00 0.00 61 1044.5
20260906033409 29 255 0.0 3.2 0.00 0.00 0.00 60 1044.5
20260906032904 29 156 0.0 1.6 0.00 0.00 0.00 60 1044.4
20260906032401 29 177 0.0 4.8 0.00 0.00 0.00 59 1044.5
20260906031855 30 92 0.0 4.8 0.00 0.00 0.00 58 1044.3
20260906031351 30 120 4.8 6.4 0.00 0.00 0.00 57 1044.3
20260906030845 30 111 3.2 3.2 0.00 0.00 0.00 57 1044.1
20260906030341 30 107 1.6 8.0 0.00 0.00 0.00 57 1044.1
20260906025835 30 99 3.2 8.0 0.00 0.00 0.00 56 1044.2
20260906025329 30 109 0.0 0.0 0.00 0.00 0.00 55 1044.0
20260906024828 30 204 0.0 1.6 0.00 0.00 0.00 55 1044.0
20260906024327 30 303 0.0 1.6 0.00 0.00 0.00 55 1043.9
20260906023823 30 149 0.0 0.0 0.00 0.00 0.00 55 1043.8
20260906023319 30 319 0.0 0.0 0.00 0.00 0.00 56 1043.8
20260906022814 30 319 0.0 0.0 0.00 0.00 0.00 56 1043.6
20260906022309 30 319 0.0 0.0 0.00 0.00 0.00 56 1043.6
20260906021805 30 344 0.0 1.6 0.00 0.00 0.00 56 1043.6
20260906021304 30 323 1.6 1.6 0.00 0.00 0.00 56 1043.4
20260906020759 30 262 0.0 0.0 0.00 0.00 0.00 54 1043.3
20260906020258 31 326 0.0 1.6 0.00 0.00 0.00 53 1043.5
20260906015758 31 69 0.0 3.2 0.00 0.00 0.00 52 1043.3
20260906015257 31 36 0.0 1.6 0.00 0.00 0.00 53 1043.2
20260906014752 31 95 1.6 3.2 0.00 0.00 0.00 52 1043.2
20260906014247 31 45 0.0 1.6 0.00 0.00 0.00 52 1043.0
20260906013743 31 25 0.0 3.2 0.00 0.00 0.00 52 1043.1
20260906013243 31 97 1.6 3.2 0.00 0.00 0.00 52 1043.1
20260906012739 31 70 0.0 0.0 0.00 0.00 0.00 52 1043.2
20260906012233 31 75 0.0 1.6 0.00 0.00 0.00 52 1042.9
20260906011729 31 149 0.0 0.0 0.00 0.00 0.00 51 1043.0
20260906011223 32 200 0.0 1.6 0.00 0.00 0.00 50 1043.1
20260906010718 32 95 1.6 3.2 0.00 0.00 0.00 49 1042.8
20260906010214 32 92 0.0 1.6 0.00 0.00 0.00 48 1042.8
20260906005709 32 109 0.0 3.2 0.00 0.00 0.00 47 1042.9
20260906005209 32 83 3.2 3.2 0.00 0.00 0.00 47 1042.7
20260906004708 32 82 0.0 0.0 0.00 0.00 0.00 47 1042.7
20260906004203 33 95 0.0 0.0 0.00 0.00 0.00 46 1042.7
20260906003658 33 52 0.0 4.8 0.00 0.00 0.00 45 1042.8
20260906003153 33 88 1.6 4.8 0.00 0.00 0.00 44 1042.5
20260906002648 34 88 4.8 4.8 0.00 0.00 0.00 43 1042.7
20260906002143 35 101 4.8 4.8 0.00 0.00 0.00 42 1042.8
20260906001638 35 104 1.6 3.2 0.00 0.00 0.00 42 1042.7
20260906001138 35 86 3.2 4.8 0.00 0.00 0.00 41 1042.5
20260906000633 35 96 6.4 6.4 0.00 0.00 0.00 40 1042.7
20260906000129 36 92 8.0 11.3 0.00 0.00 0.00 39 1042.6
20260905235628 36 91 8.0 12.9 0.00 0.00 0.00 38 1042.5
20260905235123 36 91 9.7 11.3 0.00 0.00 0.00 38 1042.6
20260905234618 36 88 4.8 9.7 0.00 0.00 0.00 38 1042.4
20260905234114 37 86 9.7 12.9 0.00 0.00 0.00 37 1042.4
20260905233608 37 118 4.8 9.7 0.00 0.00 0.00 36 1042.4
20260905233102 37 130 4.8 6.4 0.00 0.00 0.00 36 1042.5
20260905232558 36 108 8.0 12.9 0.00 0.00 0.00 37 1042.4
20260905232054 37 85 9.7 16.1 0.00 0.00 0.00 37 1042.6
20260905231548 37 87 12.9 14.5 0.00 0.00 0.00 37 1042.5
20260905231045 37 85 8.0 12.9 0.00 0.00 0.00 36 1042.5
20260905230544 37 91 11.3 14.5 0.00 0.00 0.00 36 1042.4
20260905230043 37 83 12.9 16.1 0.00 0.00 0.00 36 1042.6
20260905225537 37 90 16.1 17.7 0.00 0.00 0.00 35 1042.4
20260905225032 37 93 9.7 11.3 0.00 0.00 0.00 36 1042.4
20260905224527 37 34 6.4 12.9 0.00 0.00 0.00 36 1042.7
20260905224026 36 98 8.0 8.0 0.00 0.00 0.00 37 1042.4
20260905223524 36 97 6.4 9.7 0.00 0.00 0.00 38 1042.5
20260905223019 36 112 6.4 6.4 0.00 0.00 0.00 37 1042.3
20260905222514 36 113 3.2 8.0 0.00 0.00 0.00 37 1042.4
20260905222009 36 91 8.0 12.9 0.00 0.00 0.00 36 1042.5